カタログに戻る

SL-16 DEB

運用中LEO
NORAD 24301·DEBRIS·🇷🇺 Russia

打ち上げ Sep 4, 1996 から Baikonur Cosmodrome

Loading…

次のパス (今後24時間)

TLE

最新Source: Space-Track

元期: Sep 14, 2026, 15:49 UTC

1 24301U 96051E   26257.65969119 -.00000017  00000-0  23548-4 0  9994
2 24301  70.9950 335.3577 0205155  49.8616 101.0648 13.72629870503246

AllMySatでSL-16 DEBをリアルタイム追跡

Download on the App Store